Total_Precipitation_Accumulation
0.00 0.00 0.00 0.00 0.00 0.00 0.01 0.04 0.07 0.09 0.11 0.11 0.13 0.16 0.15 0.14 0.22 0.47 0.16 0.09 0.05 0.02 0.00 0.01 0.02 0.03 0.03 0.05 0.07 0.08 0.08 0.07 0.07 0.08 0.08 0.09 0.09 0.10 0.11 0.12 0.13 0.19 0.21 0.18 0.18 0.19 0.17 0.14 0.08
0.00 0.00 0.00 0.00 0.00 0.00 0.01 0.03 0.06 0.07 0.08 0.10 0.13 0.15 0.10 0.08 0.08 0.04 0.03 0.03 0.03 0.01 0.00 0.00 0.01 0.02 0.03 0.03 0.04 0.07 0.08 0.09 0.10 0.12 0.11 0.10 0.10 0.10 0.10 0.12 0.13 0.16 0.17 0.14 0.13 0.12 0.09 0.05 0.03
0.00 0.00 0.00 0.00 0.00 0.00 0.03 0.05 0.06 0.06 0.06 0.09 0.13 0.18 0.13 0.05 0.06 0.04 0.02 0.02 0.02 0.01 0.01 0.01 0.01 0.02 0.02 0.02 0.03 0.07 0.09 0.10 0.11 0.13 0.14 0.11 0.09 0.08 0.10 0.15 0.18 0.20 0.19 0.20 0.19 0.15 0.08 0.04 0.03
0.00 0.00 0.00 0.00 0.00 0.01 0.04 0.05 0.05 0.06 0.07 0.07 0.10 0.16 0.15 0.06 0.03 0.03 0.01 0.02 0.02 0.01 0.00 0.01 0.02 0.02 0.02 0.03 0.03 0.07 0.11 0.13 0.12 0.13 0.14 0.14 0.11 0.09 0.14 0.21 0.24 0.24 0.23 0.27 0.32 0.26 0.16 0.08 0.04
0.00 0.00 0.00 0.00 0.00 0.01 0.02 0.03 0.04 0.05 0.06 0.06 0.10 0.21 0.22 0.10 0.05 0.02 0.02 0.02 0.02 0.01 0.00 0.01 0.02 0.03 0.03 0.03 0.06 0.11 0.13 0.15 0.17 0.15 0.15 0.17 0.11 0.09 0.14 0.23 0.28 0.28 0.26 0.26 0.24 0.18 0.13 0.10 0.06
0.00 0.00 0.00 0.00 0.00 0.01 0.01 0.02 0.03 0.04 0.07 0.08 0.08 0.19 0.30 0.17 0.09 0.05 0.03 0.02 0.02 0.01 0.01 0.01 0.02 0.03 0.05 0.07 0.09 0.13 0.12 0.14 0.15 0.14 0.15 0.15 0.10 0.08 0.13 0.21 0.29 0.34 0.30 0.22 0.16 0.12 0.09 0.08 0.07
0.00 0.00 0.00 0.00 0.00 0.01 0.01 0.02 0.03 0.05 0.09 0.09 0.10 0.17 0.30 0.25 0.13 0.07 0.05 0.07 0.07 0.05 0.04 0.03 0.01 0.02 0.06 0.09 0.10 0.11 0.11 0.12 0.12 0.10 0.10 0.12 0.10 0.08 0.12 0.19 0.24 0.23 0.16 0.13 0.11 0.09 0.07 0.05 0.03
0.00 0.00 0.00 0.00 0.00 0.01 0.02 0.03 0.03 0.05 0.07 0.09 0.07 0.15 0.33 0.26 0.13 0.10 0.12 0.16 0.21 0.31 0.53 0.33 0.07 0.03 0.02 0.02 0.07 0.09 0.09 0.09 0.08 0.06 0.06 0.07 0.08 0.10 0.12 0.16 0.14 0.10 0.05 0.03 0.03 0.03 0.02 0.02 0.01
0.00 0.00 0.00 0.00 0.01 0.02 0.02 0.03 0.04 0.05 0.05 0.04 0.04 0.06 0.21 0.20 0.12 0.14 0.22 0.26 0.35 0.54 0.74 0.34 0.12 0.04 0.02 0.02 0.02 0.03 0.05 0.06 0.05 0.04 0.05 0.07 0.14 0.19 0.19 0.12 0.10 0.05 0.03 0.01 0.01 0.01 0.01 0.01 0.01
0.00 0.00 0.00 0.00 0.01 0.02 0.02 0.03 0.05 0.05 0.04 0.04 0.05 0.08 0.12 0.12 0.13 0.14 0.24 0.38 0.43 0.38 0.29 0.17 0.09 0.04 0.03 0.03 0.04 0.06 0.05 0.05 0.04 0.09 0.06 0.14 0.30 0.34 0.24 0.15 0.09 0.05 0.02 0.02 0.02 0.03 0.02 0.02 0.02
0.00 0.00 0.00 0.00 0.01 0.01 0.01 0.02 0.04 0.07 0.06 0.06 0.08 0.13 0.18 0.22 0.20 0.19 0.22 0.35 0.52 0.38 0.15 0.08 0.06 0.05 0.04 0.06 0.08 0.11 0.13 0.13 0.12 0.17 0.12 0.20 0.23 0.19 0.15 0.14 0.11 0.09 0.07 0.08 0.10 0.08 0.07 0.05 0.06
0.00 0.00 0.00 0.00 0.00 0.00 0.00 0.01 0.02 0.04 0.05 0.07 0.13 0.22 0.27 0.33 0.35 0.33 0.34 0.36 0.40 0.30 0.16 0.10 0.09 0.07 0.07 0.07 0.10 0.10 0.11 0.11 0.13 0.15 0.12 0.19 0.21 0.19 0.15 0.17 0.18 0.21 0.20 0.20 0.19 0.16 0.11 0.10 0.09
0.00 0.00 0.00 0.00 0.00 0.00 0.00 0.00 0.00 0.01 0.02 0.04 0.11 0.26 0.35 0.34 0.42 0.51 0.54 0.53 0.47 0.34 0.21 0.17 0.17 0.11 0.12 0.12 0.11 0.07 0.08 0.09 0.12 0.16 0.15 0.17 0.16 0.15 0.14 0.15 0.18 0.19 0.26 0.33 0.32 0.27 0.19 0.14 0.10
0.00 0.00 0.00 0.00 0.00 0.00 0.00 0.00 0.00 0.01 0.01 0.02 0.05 0.16 0.31 0.36 0.35 0.54 0.64 0.69 0.61 0.41 0.29 0.25 0.27 0.14 0.14 0.14 0.13 0.11 0.10 0.17 0.22 0.19 0.16 0.15 0.15 0.17 0.18 0.20 0.23 0.20 0.24 0.30 0.35 0.31 0.23 0.16 0.13
0.00 0.00 0.00 0.00 0.00 0.00 0.00 0.00 0.00 0.00 0.01 0.02 0.04 0.11 0.23 0.38 0.37 0.52 0.69 0.79 0.66 0.55 0.43 0.36 0.25 0.24 0.20 0.18 0.17 0.15 0.14 0.19 0.26 0.29 0.28 0.20 0.19 0.21 0.21 0.27 0.33 0.32 0.30 0.30 0.31 0.31 0.30 0.25 0.22
0.00 0.00 0.00 0.00 0.00 0.00 0.00 0.00 0.01 0.01 0.01 0.02 0.05 0.07 0.17 0.43 0.48 0.63 0.83 0.88 0.76 0.71 0.79 0.67 0.32 0.28 0.28 0.24 0.24 0.22 0.24 0.27 0.29 0.33 0.39 0.33 0.30 0.29 0.34 0.42 0.47 0.52 0.51 0.52 0.54 0.51 0.47 0.44 0.39
0.00 0.00 0.00 0.00 0.00 0.00 0.00 0.01 0.01 0.01 0.03 0.04 0.06 0.12 0.22 0.37 0.50 0.69 0.95 1.11 1.06 1.06 1.28 0.99 0.51 0.34 0.31 0.29 0.29 0.34 0.42 0.51 0.57 0.60 0.61 0.53 0.48 0.54 0.65 0.75 0.82 0.85 0.84 0.82 0.76 0.76 0.71 0.72 0.65
0.00 0.00 0.00 0.00 0.00 0.00 0.00 0.02 0.03 0.02 0.03 0.09 0.15 0.28 0.38 0.43 0.51 0.64 0.95 1.22 1.31 1.55 1.87 1.39 0.75 0.55 0.47 0.49 0.52 0.60 0.74 0.91 1.05 1.02 0.92 0.89 0.90 0.95 1.03 1.07 1.14 1.15 1.16 1.11 1.05 0.98 0.86 0.78 0.68
0.00 0.00 0.00 0.00 0.00 0.00 0.01 0.02 0.05 0.06 0.06 0.09 0.18 0.31 0.30 0.36 0.47 0.62 0.91 1.21 1.49 1.70 1.72 1.44 1.08 0.87 0.77 0.81 0.92 1.08 1.25 1.41 1.52 1.55 1.55 1.62 1.66 1.62 1.59 1.56 1.53 1.43 1.37 1.30 1.16 1.02 0.92 0.81 0.66
0.00 0.00 0.00 0.01 0.00 0.00 0.02 0.04 0.09 0.10 0.14 0.19 0.23 0.35 0.38 0.40 0.49 0.65 0.98 1.27 1.54 1.62 1.51 1.45 1.33 1.24 1.13 1.26 1.50 1.80 2.05 2.19 2.38 2.54 2.66 2.71 2.62 2.42 2.25 2.07 1.81 1.60 1.47 1.38 1.24 1.07 0.94 0.81 0.66
0.00 0.00 0.01 0.02 0.01 0.02 0.04 0.10 0.13 0.18 0.17 0.22 0.28 0.40 0.44 0.54 0.60 0.72 1.03 1.26 1.39 1.54 1.53 1.53 1.57 1.57 1.53 1.77 2.17 2.57 2.89 3.09 3.24 3.32 3.34 3.24 2.96 2.71 2.49 2.17 1.91 1.74 1.60 1.46 1.31 1.11 0.97 0.79 0.60
0.00 0.00 0.00 0.02 0.02 0.03 0.04 0.13 0.19 0.16 0.17 0.19 0.26 0.25 0.32 0.35 0.44 0.60 0.86 1.19 1.21 1.34 1.45 1.48 1.57 1.75 2.03 2.27 2.63 3.17 3.59 3.81 3.86 3.63 3.37 3.03 2.71 2.43 2.13 1.93 1.80 1.66 1.50 1.35 1.14 0.91 0.76 0.63 0.51
0.00 0.00 0.01 0.02 0.04 0.04 0.04 0.11 0.26 0.20 0.16 0.21 0.25 0.25 0.25 0.27 0.32 0.45 0.58 0.81 1.06 1.23 1.33 1.45 1.55 1.84 2.31 2.86 3.30 3.76 4.11 4.10 3.82 3.43 2.93 2.59 2.30 2.02 1.77 1.58 1.46 1.36 1.18 0.97 0.75 0.60 0.50 0.41 0.35
0.00 0.00 0.02 0.04 0.03 0.06 0.05 0.10 0.27 0.31 0.23 0.23 0.25 0.29 0.28 0.26 0.27 0.31 0.42 0.60 0.83 1.01 1.17 1.39 1.61 1.88 2.32 2.80 3.32 3.68 3.89 3.83 3.52 2.99 2.51 2.19 1.90 1.62 1.38 1.12 0.94 0.79 0.63 0.49 0.38 0.32 0.28 0.25 0.22
0.00 0.00 0.01 0.04 0.03 0.04 0.06 0.13 0.35 0.44 0.39 0.32 0.26 0.27 0.28 0.27 0.29 0.34 0.39 0.46 0.59 0.73 0.93 1.15 1.35 1.67 1.95 2.31 2.74 2.82 2.79 2.65 2.36 2.19 2.00 1.68 1.35 1.10 0.90 0.70 0.55 0.42 0.34 0.28 0.24 0.20 0.17 0.13 0.12
0.00 0.00 0.00 0.03 0.04 0.05 0.10 0.26 0.49 0.46 0.43 0.36 0.31 0.26 0.27 0.29 0.29 0.34 0.40 0.48 0.63 0.74 0.85 0.96 1.14 1.35 1.52 1.63 1.74 1.71 1.58 1.51 1.43 1.33 1.13 0.92 0.74 0.60 0.48 0.39 0.30 0.24 0.19 0.15 0.11 0.09 0.08 0.08 0.08
0.00 0.00 0.00 0.01 0.03 0.08 0.21 0.38 0.56 0.56 0.49 0.43 0.37 0.30 0.29 0.32 0.34 0.39 0.45 0.51 0.60 0.66 0.75 0.75 0.76 0.88 0.92 0.90 0.89 0.89 0.90 0.87 0.80 0.69 0.56 0.47 0.39 0.31 0.25 0.19 0.14 0.10 0.09 0.08 0.07 0.06 0.07 0.08 0.08
0.00 0.00 0.00 0.01 0.02 0.09 0.21 0.35 0.47 0.61 0.57 0.49 0.42 0.34 0.32 0.35 0.40 0.44 0.46 0.48 0.45 0.45 0.48 0.49 0.46 0.46 0.48 0.50 0.48 0.47 0.49 0.47 0.39 0.34 0.30 0.25 0.20 0.16 0.12 0.11 0.09 0.08 0.07 0.07 0.07 0.07 0.07 0.09 0.09
0.01 0.01 0.01 0.01 0.02 0.06 0.20 0.47 0.59 0.81 0.85 0.73 0.58 0.44 0.39 0.42 0.43 0.42 0.40 0.37 0.34 0.33 0.32 0.32 0.31 0.30 0.31 0.32 0.30 0.28 0.26 0.22 0.18 0.15 0.14 0.12 0.11 0.10 0.09 0.09 0.09 0.09 0.08 0.08 0.09 0.10 0.10 0.09 0.08
0.02 0.02 0.02 0.02 0.02 0.05 0.23 0.71 0.86 0.97 1.01 0.88 0.75 0.57 0.45 0.45 0.46 0.43 0.36 0.31 0.27 0.25 0.23 0.23 0.25 0.24 0.24 0.22 0.20 0.17 0.15 0.13 0.11 0.10 0.09 0.08 0.08 0.08 0.08 0.09 0.08 0.07 0.07 0.07 0.09 0.09 0.08 0.08 0.08